• In Russia
  • List of Countries
  • For 7 days
  • Water Temperature
  • Satellite Maps
  • Weather Map
  • Weather Widgets
  • user-avatar
    Login

    Hourly Weather Pernik

    Today, 21 November, Wednesday

    Time Temperature Precipitation Wind Pressure Humidity
    00:00 +5°C° 0.2 mm 2 mps 689 mmHg 94%
    01:00 +5°C° 0.2 mm 2 mps 689 mmHg 94%
    02:00 +5°C° 0 mm 2 mps 688 mmHg 96%
    03:00 +5°C° 0.2 mm 2 mps 688 mmHg 96%
    04:00 +5°C° 0.2 mm 2 mps 687 mmHg 96%
    05:00 +5°C° 0.2 mm 2 mps 687 mmHg 96%
    06:00 +5°C° 0.4 mm 2 mps 687 mmHg 96%
    07:00 +5°C° 0.4 mm 2 mps 687 mmHg 96%
    08:00 +5°C° 0 mm 2 mps 687 mmHg 96%
    09:00 +6°C° 0.5 mm 1 mps 687 mmHg 95%
    10:00 +7°C° 0.5 mm 1 mps 687 mmHg 93%
    11:00 +7°C° 0.5 mm 1 mps 687 mmHg 92%
    12:00 +6°C° 0.9 mm 2 mps 687 mmHg 92%
    13:00 +6°C° 0.9 mm 2 mps 687 mmHg 92%
    14:00 +5°C° 0.9 mm 2 mps 687 mmHg 92%
    15:00 +5°C° 0.7 mm 2 mps 687 mmHg 92%
    16:00 +4°C° 0.7 mm 2 mps 688 mmHg 93%
    17:00 +4°C° 0.7 mm 2 mps 688 mmHg 93%
    18:00 +4°C° 0.3 mm 2 mps 688 mmHg 93%
    19:00 +3°C° 0.3 mm 2 mps 688 mmHg 93%
    20:00 +3°C° 0.3 mm 2 mps 689 mmHg 92%
    21:00 +4°C° 0.1 mm 1 mps 689 mmHg 92%
    22:00 +4°C° 0.1 mm 1 mps 690 mmHg 92%
    23:00 +3°C° 0.1 mm 1 mps 690 mmHg 91%

    Tomorrow, 22 November, Thursday

    Time Temperature Precipitation Wind Pressure Humidity
    00:00 +3°C° 0.1 mm 1 mps 690 mmHg 91%
    01:00 +3°C° 0.1 mm 1 mps 690 mmHg 91%
    02:00 +3°C° 0.1 mm 1 mps 691 mmHg 91%
    03:00 +3°C° 0.1 mm 1 mps 691 mmHg 91%
    04:00 +3°C° 0.1 mm 1 mps 691 mmHg 92%
    05:00 +3°C° 0.1 mm 1 mps 691 mmHg 92%
    06:00 +2°C° 0.1 mm 1 mps 691 mmHg 91%
    07:00 +2°C° 0.1 mm 1 mps 691 mmHg 91%
    08:00 +2°C° 0.1 mm 1 mps 692 mmHg 90%
    09:00 +4°C° 0.1 mm 1 mps 692 mmHg 87%
    10:00 +5°C° 0.1 mm 1 mps 693 mmHg 84%
    11:00 +6°C° 0.1 mm 1 mps 693 mmHg 81%
    12:00 +6°C° 0.1 mm 1 mps 693 mmHg 80%
    13:00 +7°C° 0.1 mm 1 mps 693 mmHg 79%
    14:00 +7°C° 0.1 mm 1 mps 693 mmHg 78%
    15:00 +6°C° 0 mm 1 mps 693 mmHg 81%
    16:00 +5°C° 0 mm 1 mps 693 mmHg 85%
    17:00 +4°C° 0 mm 1 mps 693 mmHg 88%
    18:00 +4°C° 0 mm 1 mps 693 mmHg 89%
    19:00 +3°C° 0 mm 1 mps 694 mmHg 90%
    20:00 +3°C° 0 mm 1 mps 694 mmHg 91%
    21:00 +3°C° 0 mm 1 mps 694 mmHg 91%
    22:00 +3°C° 0 mm 1 mps 694 mmHg 92%
    23:00 +2°C° 0 mm 1 mps 694 mmHg 92%

    Day after tomorrow, 23 November, Friday

    Time Temperature Precipitation Wind Pressure Humidity
    00:00 +2°C° 0 mm 1 mps 694 mmHg 92%
    01:00 +2°C° 0 mm 1 mps 695 mmHg 92%
    02:00 +2°C° 0 mm 1 mps 695 mmHg 92%
    03:00 +2°C° 0 mm 1 mps 695 mmHg 92%
    04:00 +2°C° 0 mm 1 mps 695 mmHg 92%
    05:00 +2°C° 0 mm 1 mps 695 mmHg 92%
    06:00 +2°C° 0 mm 1 mps 695 mmHg 92%
    07:00 +2°C° 0 mm 1 mps 695 mmHg 92%
    08:00 +2°C° 0 mm 1 mps 696 mmHg 92%
    09:00 +3°C° 0 mm 1 mps 696 mmHg 87%
    10:00 +5°C° 0 mm 1 mps 697 mmHg 83%
    11:00 +7°C° 0 mm 1 mps 697 mmHg 78%
    12:00 +7°C° 0 mm 1 mps 697 mmHg 77%
    13:00 +8°C° 0 mm 1 mps 697 mmHg 75%
    14:00 +8°C° 0 mm 1 mps 697 mmHg 74%
    15:00 +7°C° 0 mm 1 mps 697 mmHg 78%
    16:00 +6°C° 0 mm 1 mps 696 mmHg 83%
    17:00 +5°C° 0 mm 1 mps 696 mmHg 87%
    18:00 +5°C° 0 mm 1 mps 696 mmHg 88%
    19:00 +4°C° 0 mm 1 mps 697 mmHg 90%
    20:00 +4°C° 0 mm 1 mps 697 mmHg 91%
    21:00 +3°C° 0 mm 1 mps 697 mmHg 91%
    22:00 +3°C° 0 mm 1 mps 697 mmHg 91%
    23:00 +3°C° 0 mm 1 mps 697 mmHg 92%

    24 November, Saturday

    Time Temperature Precipitation Wind Pressure Humidity
    00:00 +3°C° 0 mm 1 mps 697 mmHg 92%
    01:00 +3°C° 0 mm 1 mps 697 mmHg 91%
    02:00 +2°C° 0 mm 1 mps 696 mmHg 91%
    03:00 +2°C° 0 mm 1 mps 696 mmHg 91%
    04:00 +2°C° 0 mm 1 mps 696 mmHg 91%
    05:00 +2°C° 0 mm 1 mps 695 mmHg 90%
    06:00 +2°C° 0 mm 1 mps 695 mmHg 90%
    07:00 +2°C° 0 mm 1 mps 695 mmHg 90%
    08:00 +2°C° 0 mm 1 mps 695 mmHg 89%
    09:00 +4°C° 0 mm 1 mps 695 mmHg 84%
    10:00 +6°C° 0 mm 1 mps 695 mmHg 79%
    11:00 +8°C° 0 mm 1 mps 695 mmHg 74%
    12:00 +8°C° 0 mm 1 mps 695 mmHg 73%
    13:00 +9°C° 0 mm 1 mps 694 mmHg 71%
    14:00 +10°C° 0 mm 1 mps 694 mmHg 69%
    15:00 +9°C° 0 mm 1 mps 694 mmHg 73%
    16:00 +8°C° 0 mm 1 mps 693 mmHg 77%
    17:00 +7°C° 0 mm 1 mps 693 mmHg 81%
    18:00 +6°C° 0 mm 1 mps 693 mmHg 83%
    19:00 +6°C° 0 mm 1 mps 693 mmHg 84%
    20:00 +5°C° 0 mm 1 mps 693 mmHg 85%
    21:00 +5°C° 0 mm 1 mps 693 mmHg 85%
    22:00 +5°C° 0 mm 1 mps 693 mmHg 84%
    23:00 +5°C° 0 mm 1 mps 693 mmHg 84%

    25 November, Sunday

    Time Temperature Precipitation Wind Pressure Humidity
    00:00 +5°C° 0 mm 1 mps 692 mmHg 84%
    01:00 +5°C° 0 mm 1 mps 692 mmHg 84%
    02:00 +5°C° 0 mm 1 mps 692 mmHg 84%
    03:00 +5°C° 0 mm 1 mps 691 mmHg 84%
    04:00 +5°C° 0 mm 1 mps 691 mmHg 84%
    05:00 +5°C° 0 mm 1 mps 691 mmHg 84%
    06:00 +5°C° 0 mm 1 mps 691 mmHg 84%
    07:00 +5°C° 0 mm 1 mps 691 mmHg 84%
    08:00 +5°C° 0 mm 1 mps 691 mmHg 83%
    09:00 +7°C° 0 mm 1 mps 691 mmHg 78%
    10:00 +9°C° 0 mm 1 mps 691 mmHg 73%
    11:00 +11°C° 0 mm 1 mps 691 mmHg 67%
    12:00 +11°C° 0 mm 1 mps 691 mmHg 65%
    13:00 +12°C° 0 mm 1 mps 690 mmHg 64%
    14:00 +13°C° 0 mm 1 mps 689 mmHg 62%
    15:00 +12°C° 0 mm 1 mps 689 mmHg 67%
    16:00 +10°C° 0 mm 1 mps 689 mmHg 73%
    17:00 +9°C° 0 mm 1 mps 688 mmHg 78%
    18:00 +8°C° 0 mm 1 mps 688 mmHg 79%
    19:00 +8°C° 0 mm 1 mps 688 mmHg 81%
    20:00 +7°C° 0 mm 1 mps 688 mmHg 83%
    21:00 +7°C° 0.1 mm 1 mps 687 mmHg 84%
    22:00 +7°C° 0.1 mm 1 mps 687 mmHg 84%
    23:00 +6°C° 0.1 mm 2 mps 687 mmHg 85%

    26 November, Monday

    Time Temperature Precipitation Wind Pressure Humidity
    00:00 +6°C° 0.4 mm 2 mps 687 mmHg 86%
    01:00 +6°C° 0.4 mm 2 mps 686 mmHg 87%
    02:00 +6°C° 0.4 mm 2 mps 685 mmHg 89%
    03:00 +6°C° 0.5 mm 2 mps 685 mmHg 89%
    04:00 +6°C° 0.5 mm 2 mps 684 mmHg 89%
    05:00 +6°C° 0.5 mm 2 mps 684 mmHg 89%
    06:00 +6°C° 0.8 mm 2 mps 683 mmHg 89%
    07:00 +6°C° 0.8 mm 2 mps 683 mmHg 89%
    08:00 +7°C° 0.8 mm 1 mps 683 mmHg 89%
    09:00 +8°C° 0.3 mm 1 mps 683 mmHg 88%
    10:00 +9°C° 0.3 mm 1 mps 683 mmHg 86%
    11:00 +9°C° 0.3 mm 1 mps 683 mmHg 85%
    12:00 +9°C° 1.5 mm 1 mps 683 mmHg 86%
    13:00 +8°C° 1.5 mm 2 mps 683 mmHg 88%
    14:00 +8°C° 1.5 mm 2 mps 682 mmHg 90%
    15:00 +8°C° 0.7 mm 1 mps 683 mmHg 91%
    16:00 +8°C° 0.7 mm 1 mps 683 mmHg 93%
    17:00 +7°C° 0.7 mm 1 mps 683 mmHg 94%
    18:00 +7°C° 0 mm 1 mps 683 mmHg 94%
    19:00 +7°C° 0 mm 1 mps 684 mmHg 94%
    20:00 +6°C° 0 mm 1 mps 684 mmHg 94%
    21:00 +6°C° 0 mm 1 mps 684 mmHg 94%
    22:00 +6°C° 0 mm 1 mps 684 mmHg 94%
    23:00 +5°C° 0 mm 1 mps 685 mmHg 94%
    Show more